DLH230 LFMN-LSZH

Flight info

Callsign DLH230
Flight time 0h 48m
Altitude 18000
Route BASIP Y15 ANAKI DCT CANNE Z651 KELIP
Aircraft A320/M-SDE3FGHIRWY/LB1

Departure

Time 2026-04-26 14:12
Airport Nice-Côte d'Azur Airport (LFMN)

Arrival

Time 2026-04-26 15:00
Airport Zürich Airport (LSZH)
Time Latitude Longitude Altitude Speed Heading
2026-04-26 13:37 43.66422 7.21283 23 ft 0 kts 11°
2026-04-26 14:01 43.66420 7.21283 22 ft 2 kts 11°
2026-04-26 14:01 43.66394 7.21275 22 ft 4 kts 11°
2026-04-26 14:01 43.66368 7.21269 22 ft 4 kts 14°
2026-04-26 14:01 43.66344 7.21255 24 ft 4 kts 39°
2026-04-26 14:02 43.66330 7.21230 24 ft 2 kts 81°
2026-04-26 14:02 43.66329 7.21227 24 ft 0 kts 81°
2026-04-26 14:05 43.66329 7.21228 22 ft 1 kts 81°
2026-04-26 14:05 43.66334 7.21267 23 ft 5 kts 81°
2026-04-26 14:06 43.66338 7.21307 22 ft 6 kts 81°
2026-04-26 14:06 43.66347 7.21388 23 ft 10 kts 81°
2026-04-26 14:06 43.66368 7.21474 22 ft 9 kts 64°
2026-04-26 14:06 43.66363 7.21550 22 ft 8 kts 116°
2026-04-26 14:07 43.66318 7.21601 22 ft 10 kts 160°
2026-04-26 14:07 43.66245 7.21548 22 ft 15 kts 227°
2026-04-26 14:07 43.66156 7.21421 22 ft 21 kts 224°
2026-04-26 14:07 43.66039 7.21266 22 ft 26 kts 225°
2026-04-26 14:08 43.65900 7.21075 22 ft 29 kts 225°
2026-04-26 14:08 43.65787 7.20917 22 ft 4 kts 226°
2026-04-26 14:08 43.65747 7.20885 22 ft 13 kts 195°
2026-04-26 14:08 43.65653 7.20897 22 ft 14 kts 169°
2026-04-26 14:09 43.65523 7.20928 22 ft 22 kts 169°
2026-04-26 14:09 43.65357 7.20951 22 ft 25 kts 199°
2026-04-26 14:09 43.65230 7.20789 22 ft 26 kts 225°
2026-04-26 14:09 43.65118 7.20637 22 ft 18 kts 222°
2026-04-26 14:10 43.65028 7.20516 22 ft 19 kts 225°
2026-04-26 14:10 43.64933 7.20385 22 ft 20 kts 224°
2026-04-26 14:10 43.64842 7.20276 22 ft 14 kts 199°
2026-04-26 14:10 43.64825 7.20273 22 ft 3 kts 182°
2026-04-26 14:11 43.64785 7.20404 22 ft 0 kts 45°
2026-04-26 14:11 43.64843 7.20482 22 ft 44 kts 45°
2026-04-26 14:11 43.65236 7.21024 23 ft 112 kts 45°
2026-04-26 14:12 43.65922 7.21967 35 ft 163 kts 43°
2026-04-26 14:12 43.66703 7.23136 659 ft 166 kts 59°
2026-04-26 14:12 43.67009 7.24672 1284 ft 174 kts 88°
2026-04-26 14:12 43.66640 7.26387 1507 ft 203 kts 123°
2026-04-26 14:13 43.64590 7.29363 2943 ft 215 kts 133°
2026-04-26 14:13 43.63641 7.30959 3770 ft 218 kts 115°
2026-04-26 14:13 43.63376 7.32991 4555 ft 220 kts 81°
2026-04-26 14:14 43.63833 7.35030 5376 ft 223 kts 70°
2026-04-26 14:14 43.64366 7.37045 6194 ft 224 kts 71°
2026-04-26 14:14 43.64902 7.39078 6987 ft 226 kts 71°
2026-04-26 14:14 43.65439 7.41127 7748 ft 228 kts 70°
2026-04-26 14:15 43.65982 7.43205 8523 ft 231 kts 70°
2026-04-26 14:15 43.66528 7.45303 9327 ft 233 kts 70°
2026-04-26 14:15 43.67081 7.47434 9854 ft 238 kts 69°
2026-04-26 14:15 43.67636 7.49570 9986 ft 246 kts 69°
2026-04-26 14:16 43.68273 7.51963 10113 ft 274 kts 69°
2026-04-26 14:16 43.68939 7.54448 10264 ft 285 kts 69°
2026-04-26 14:16 43.69660 7.57141 10620 ft 307 kts 69°
2026-04-26 14:16 43.70426 7.60015 10891 ft 330 kts 69°
2026-04-26 14:17 43.71233 7.63054 11152 ft 350 kts 69°
2026-04-26 14:17 43.72083 7.66261 11746 ft 359 kts 69°
2026-04-26 14:17 43.72952 7.69523 12457 ft 363 kts 68°
2026-04-26 14:17 43.74198 7.72567 13162 ft 368 kts 52°
2026-04-26 14:18 43.75883 7.75264 13874 ft 372 kts 48°
2026-04-26 14:18 43.77609 7.77953 14511 ft 376 kts 48°
2026-04-26 14:18 43.79362 7.80676 15095 ft 381 kts 47°
2026-04-26 14:18 43.81133 7.83436 15674 ft 387 kts 47°
2026-04-26 14:19 43.82926 7.86242 16246 ft 392 kts 47°
2026-04-26 14:19 43.84741 7.89097 16807 ft 397 kts 48°
2026-04-26 14:19 43.86585 7.92000 17394 ft 402 kts 48°
2026-04-26 14:19 43.88441 7.94918 17929 ft 406 kts 47°
2026-04-26 14:20 43.90551 7.97441 18132 ft 407 kts 31°
2026-04-26 14:20 43.93184 7.99041 18233 ft 421 kts 15°
2026-04-26 14:20 43.96052 8.00133 18457 ft 432 kts 14°
2026-04-26 14:20 43.98966 8.01231 18837 ft 437 kts 14°
2026-04-26 14:21 44.01910 8.02348 19281 ft 440 kts 14°
2026-04-26 14:21 44.04874 8.03483 19734 ft 443 kts 14°
2026-04-26 14:21 44.07858 8.04632 20167 ft 446 kts 14°
2026-04-26 14:21 44.10861 8.05792 20595 ft 449 kts 14°
2026-04-26 14:22 44.13883 8.06962 21007 ft 452 kts 14°
2026-04-26 14:22 44.16920 8.08141 21139 ft 454 kts 14°
2026-04-26 14:22 44.19962 8.09320 21160 ft 454 kts 14°
2026-04-26 14:22 44.23002 8.10497 21155 ft 453 kts 14°
2026-04-26 14:23 44.26041 8.11669 21147 ft 453 kts 14°
2026-04-26 14:23 44.29080 8.12841 21145 ft 453 kts 14°
2026-04-26 14:23 44.32094 8.14002 21130 ft 453 kts 14°
2026-04-26 14:23 44.35136 8.15177 21122 ft 454 kts 14°
2026-04-26 14:24 44.38178 8.16361 21121 ft 454 kts 14°
2026-04-26 14:24 44.41221 8.17549 21117 ft 454 kts 14°
2026-04-26 14:24 44.44265 8.18741 21120 ft 454 kts 14°
2026-04-26 14:24 44.47311 8.19931 21131 ft 454 kts 14°
2026-04-26 14:25 44.50359 8.21121 21118 ft 454 kts 14°
2026-04-26 14:25 44.53403 8.22311 21119 ft 454 kts 14°
2026-04-26 14:25 44.56443 8.23503 21109 ft 454 kts 14°
2026-04-26 14:25 44.59483 8.24694 21109 ft 453 kts 14°
2026-04-26 14:26 44.62523 8.25883 21103 ft 453 kts 14°
2026-04-26 14:26 44.65555 8.27072 21103 ft 453 kts 14°
2026-04-26 14:26 44.68564 8.28255 21102 ft 453 kts 14°
2026-04-26 14:26 44.71595 8.29448 21104 ft 453 kts 14°
2026-04-26 14:27 44.74635 8.30644 21112 ft 453 kts 14°
2026-04-26 14:27 44.77677 8.31839 21108 ft 453 kts 14°
2026-04-26 14:27 44.80713 8.33034 21110 ft 453 kts 14°
2026-04-26 14:27 44.83747 8.34234 21110 ft 453 kts 14°
2026-04-26 14:28 44.86785 8.35440 21109 ft 453 kts 14°
2026-04-26 14:28 44.89817 8.36645 21112 ft 452 kts 14°
2026-04-26 14:28 44.92844 8.37850 21107 ft 452 kts 14°
2026-04-26 14:28 44.95870 8.39053 21106 ft 451 kts 14°
2026-04-26 14:29 44.98897 8.40254 21108 ft 451 kts 14°
2026-04-26 14:29 45.01914 8.41449 21099 ft 451 kts 14°
2026-04-26 14:29 45.04936 8.42648 21096 ft 451 kts 14°
2026-04-26 14:29 45.07958 8.43852 21109 ft 450 kts 14°
2026-04-26 14:30 45.10940 8.45044 21109 ft 450 kts 14°
2026-04-26 14:30 45.13946 8.46249 21101 ft 450 kts 14°
2026-04-26 14:30 45.16960 8.47455 21102 ft 450 kts 14°
2026-04-26 14:30 45.19984 8.48663 21102 ft 450 kts 14°
2026-04-26 14:31 45.23001 8.49873 21104 ft 449 kts 14°
2026-04-26 14:31 45.26004 8.51079 21104 ft 449 kts 14°
2026-04-26 14:31 45.29020 8.52291 21106 ft 449 kts 14°
2026-04-26 14:31 45.32022 8.53499 21107 ft 449 kts 14°
2026-04-26 14:32 45.35029 8.54716 21110 ft 449 kts 14°
2026-04-26 14:32 45.38033 8.55933 21110 ft 449 kts 14°
2026-04-26 14:32 45.41041 8.57145 21110 ft 449 kts 14°
2026-04-26 14:32 45.44021 8.58345 21109 ft 449 kts 14°
2026-04-26 14:33 45.47030 8.59556 21089 ft 449 kts 14°
2026-04-26 14:33 45.50039 8.60771 21089 ft 449 kts 14°
2026-04-26 14:33 45.53053 8.61993 21087 ft 449 kts 14°
2026-04-26 14:33 45.56067 8.63217 21088 ft 449 kts 14°
2026-04-26 14:34 45.59067 8.64435 21089 ft 449 kts 14°
2026-04-26 14:34 45.62078 8.65664 21088 ft 449 kts 14°
2026-04-26 14:34 45.65082 8.66894 21089 ft 449 kts 14°
2026-04-26 14:34 45.68087 8.68122 21089 ft 449 kts 14°
2026-04-26 14:35 45.71092 8.69343 21096 ft 449 kts 14°
2026-04-26 14:35 45.74094 8.70561 21094 ft 449 kts 14°
2026-04-26 14:35 45.77100 8.71782 21092 ft 449 kts 14°
2026-04-26 14:35 45.80110 8.73011 21090 ft 449 kts 14°
2026-04-26 14:36 45.83108 8.74239 21090 ft 449 kts 14°
2026-04-26 14:36 45.86110 8.75474 21096 ft 449 kts 14°
2026-04-26 14:36 45.89113 8.76713 21094 ft 449 kts 14°
2026-04-26 14:36 45.92115 8.77952 21091 ft 449 kts 14°
2026-04-26 14:37 45.95116 8.79190 21090 ft 449 kts 14°
2026-04-26 14:37 45.98116 8.80430 21089 ft 448 kts 14°
2026-04-26 14:37 46.01114 8.81668 21084 ft 448 kts 14°
2026-04-26 14:37 46.04108 8.82905 21092 ft 448 kts 14°
2026-04-26 14:38 46.07075 8.84130 21086 ft 448 kts 14°
2026-04-26 14:38 46.10112 8.85382 21086 ft 448 kts 14°
2026-04-26 14:38 46.13110 8.86620 21086 ft 448 kts 13°
2026-04-26 14:38 46.15122 8.87276 21083 ft 446 kts
2026-04-26 14:39 46.19204 8.87676 21083 ft 442 kts 355°
2026-04-26 14:39 46.22264 8.87282 21083 ft 441 kts 352°
2026-04-26 14:39 46.25312 8.86821 21085 ft 442 kts 352°
2026-04-26 14:39 46.28375 8.86363 21088 ft 441 kts 352°
2026-04-26 14:40 46.31426 8.85907 21092 ft 442 kts 352°
2026-04-26 14:40 46.34487 8.85447 21094 ft 442 kts 352°
2026-04-26 14:40 46.37542 8.84987 21097 ft 441 kts 352°
2026-04-26 14:40 46.40601 8.84525 21112 ft 441 kts 352°
2026-04-26 14:41 46.43651 8.84064 21126 ft 440 kts 352°
2026-04-26 14:41 46.46700 8.83603 21128 ft 441 kts 352°
2026-04-26 14:41 46.49757 8.83142 21142 ft 441 kts 352°
2026-04-26 14:41 46.52806 8.82683 21138 ft 440 kts 352°
2026-04-26 14:42 46.55852 8.82224 21139 ft 440 kts 352°
2026-04-26 14:42 46.58909 8.81759 21137 ft 440 kts 352°
2026-04-26 14:42 46.61952 8.81292 21128 ft 440 kts 352°
2026-04-26 14:42 46.64994 8.80826 21146 ft 440 kts 352°
2026-04-26 14:43 46.68036 8.80366 21149 ft 439 kts 352°
2026-04-26 14:43 46.71068 8.79908 21140 ft 439 kts 352°
2026-04-26 14:43 46.74053 8.79459 21041 ft 431 kts 352°
2026-04-26 14:43 46.77045 8.79012 20409 ft 425 kts 352°
2026-04-26 14:44 46.79941 8.78575 19787 ft 421 kts 352°
2026-04-26 14:44 46.82859 8.78131 18898 ft 425 kts 352°
2026-04-26 14:44 46.85825 8.77674 18300 ft 421 kts 352°
2026-04-26 14:44 46.88727 8.77225 17691 ft 416 kts 352°
2026-04-26 14:45 46.91583 8.76784 17128 ft 410 kts 352°
2026-04-26 14:45 46.93456 8.76496 16770 ft 406 kts 352°
2026-04-26 14:45 46.97172 8.75926 16073 ft 398 kts 352°
2026-04-26 14:45 46.99907 8.75501 15552 ft 393 kts 352°
2026-04-26 14:46 47.02609 8.75074 15034 ft 389 kts 352°
2026-04-26 14:46 47.05258 8.74649 14517 ft 385 kts 352°
2026-04-26 14:46 47.07912 8.74192 13949 ft 383 kts 351°
2026-04-26 14:46 47.10524 8.73598 13646 ft 374 kts 348°
2026-04-26 14:47 47.13034 8.72932 13511 ft 359 kts 348°
2026-04-26 14:47 47.15436 8.72254 13378 ft 346 kts 347°
2026-04-26 14:47 47.17727 8.71602 13246 ft 322 kts 347°
2026-04-26 14:47 47.19875 8.71000 12854 ft 310 kts 347°
2026-04-26 14:48 47.21976 8.70424 12282 ft 305 kts 348°
2026-04-26 14:48 47.24060 8.69861 11645 ft 302 kts 348°
2026-04-26 14:48 47.26120 8.69301 11016 ft 300 kts 346°
2026-04-26 14:48 47.27439 8.68722 10620 ft 297 kts 336°
2026-04-26 14:49 47.29297 8.67468 10267 ft 291 kts 333°
2026-04-26 14:49 47.31141 8.66201 10177 ft 292 kts 333°
2026-04-26 14:49 47.32991 8.64935 10091 ft 295 kts 334°
2026-04-26 14:49 47.34850 8.63668 9641 ft 295 kts 333°
2026-04-26 14:50 47.36708 8.62401 9205 ft 293 kts 334°
2026-04-26 14:50 47.38480 8.60948 8778 ft 290 kts 328°
2026-04-26 14:50 47.40196 8.59430 8462 ft 285 kts 328°
2026-04-26 14:50 47.41896 8.57930 8223 ft 284 kts 328°
2026-04-26 14:51 47.43559 8.56464 8059 ft 272 kts 328°
2026-04-26 14:51 47.45147 8.55065 7943 ft 259 kts 329°
2026-04-26 14:51 47.46720 8.53906 7812 ft 247 kts 336°
2026-04-26 14:51 47.48265 8.52903 7662 ft 240 kts 336°
2026-04-26 14:52 47.49807 8.51891 7234 ft 244 kts 336°
2026-04-26 14:52 47.51347 8.50873 6963 ft 241 kts 336°
2026-04-26 14:52 47.52861 8.49870 6743 ft 236 kts 336°
2026-04-26 14:52 47.54343 8.48887 6544 ft 231 kts 336°
2026-04-26 14:53 47.55773 8.47941 6346 ft 224 kts 338°
2026-04-26 14:53 47.57179 8.47010 6159 ft 219 kts 337°
2026-04-26 14:53 47.58556 8.46102 5973 ft 213 kts 338°
2026-04-26 14:53 47.59881 8.45231 5812 ft 201 kts 338°
2026-04-26 14:54 47.61130 8.44407 5643 ft 192 kts 338°
2026-04-26 14:54 47.62307 8.43616 5477 ft 182 kts 335°
2026-04-26 14:54 47.63260 8.42444 5346 ft 178 kts 312°
2026-04-26 14:54 47.63802 8.40881 5272 ft 165 kts 289°
2026-04-26 14:55 47.63907 8.39221 5225 ft 160 kts 266°
2026-04-26 14:55 47.63609 8.37637 5200 ft 162 kts 242°
2026-04-26 14:55 47.62860 8.36449 4976 ft 158 kts 208°
2026-04-26 14:55 47.61827 8.36031 4866 ft 155 kts 176°
2026-04-26 14:56 47.60816 8.36425 4721 ft 151 kts 146°
2026-04-26 14:56 47.60024 8.37404 4550 ft 148 kts 133°
2026-04-26 14:56 47.59267 8.38445 4373 ft 148 kts 133°
2026-04-26 14:56 47.58516 8.39478 4179 ft 147 kts 133°
2026-04-26 14:57 47.57764 8.40512 3983 ft 146 kts 132°
2026-04-26 14:57 47.57020 8.41533 3806 ft 146 kts 132°
2026-04-26 14:57 47.56274 8.42557 3595 ft 146 kts 134°
2026-04-26 14:57 47.55531 8.43577 3413 ft 145 kts 133°
2026-04-26 14:58 47.54792 8.44591 3211 ft 144 kts 133°
2026-04-26 14:58 47.54058 8.45598 3020 ft 144 kts 133°
2026-04-26 14:58 47.53323 8.46604 2817 ft 144 kts 134°
2026-04-26 14:58 47.52605 8.47589 2640 ft 142 kts 133°
2026-04-26 14:59 47.51882 8.48578 2446 ft 140 kts 134°
2026-04-26 14:59 47.51170 8.49553 2254 ft 138 kts 134°
2026-04-26 14:59 47.50467 8.50501 2060 ft 136 kts 134°
2026-04-26 14:59 47.50014 8.51151 1924 ft 137 kts 134°
2026-04-26 15:00 47.49071 8.52432 1741 ft 137 kts 135°
2026-04-26 15:00 47.48368 8.53398 1514 ft 137 kts 135°
2026-04-26 15:00 47.47685 8.54326 1399 ft 124 kts 136°
2026-04-26 15:00 47.47248 8.54921 1402 ft 42 kts 139°
2026-04-26 15:01 47.47057 8.55182 1398 ft 40 kts 137°
2026-04-26 15:01 47.46860 8.55449 1402 ft 36 kts 137°
2026-04-26 15:01 47.46697 8.55618 1400 ft 28 kts 153°
2026-04-26 15:01 47.46538 8.55698 1405 ft 14 kts 169°
2026-04-26 15:02 47.46458 8.55723 1405 ft 8 kts 164°
2026-04-26 15:02 47.46430 8.55736 1398 ft 1 kts 162°
2026-04-26 15:02 47.46403 8.55751 1401 ft 6 kts 156°
2026-04-26 15:02 47.46370 8.55781 1404 ft 4 kts 145°
2026-04-26 15:03 47.46325 8.55838 1406 ft 12 kts 139°
2026-04-26 15:03 47.46253 8.55884 1401 ft 12 kts 198°
2026-04-26 15:03 47.46234 8.55785 1398 ft 10 kts 274°
2026-04-26 15:03 47.46239 8.55692 1401 ft 9 kts 274°
2026-04-26 15:04 47.46238 8.55617 1397 ft 5 kts 244°
2026-04-26 15:04 47.46210 8.55595 1399 ft 4 kts 197°
2026-04-26 15:04 47.46185 8.55590 1397 ft 3 kts 184°
2026-04-26 15:04 47.46170 8.55588 1397 ft 0 kts 186°